﻿"Plot Title: Oyster Bay"
"#","Date Time, GMT-07:00","Temp, °C (LGR S/N: 10397700, SEN S/N: 10397700)"
1,06/10/14 05:25:20 PM,24.351
2,06/10/14 05:40:20 PM,24.931
3,06/10/14 05:55:20 PM,23.581
4,06/10/14 06:10:20 PM,23.004
5,06/10/14 06:25:20 PM,22.717
6,06/10/14 06:40:20 PM,22.717
7,06/10/14 06:55:20 PM,22.717
8,06/10/14 07:10:20 PM,22.717
9,06/10/14 07:25:20 PM,22.717
10,06/10/14 07:40:20 PM,22.812
11,06/10/14 07:55:20 PM,22.621
12,06/10/14 08:10:20 PM,22.429
13,06/10/14 08:25:20 PM,22.333
14,06/10/14 08:40:20 PM,22.238
15,06/10/14 08:55:20 PM,22.238
16,06/10/14 09:10:20 PM,22.142
17,06/10/14 09:25:20 PM,22.046
18,06/10/14 09:40:20 PM,21.855
19,06/10/14 09:55:20 PM,21.664
20,06/10/14 10:10:20 PM,21.473
21,06/10/14 10:25:20 PM,21.282
22,06/10/14 10:40:20 PM,21.091
23,06/10/14 10:55:20 PM,20.901
24,06/10/14 11:10:20 PM,20.710
25,06/10/14 11:25:20 PM,20.519
26,06/10/14 11:40:20 PM,20.329
27,06/10/14 11:55:20 PM,20.138
28,06/11/14 12:10:20 AM,20.043
29,06/11/14 12:25:20 AM,19.758
30,06/11/14 12:40:20 AM,19.567
31,06/11/14 12:55:20 AM,19.282
32,06/11/14 01:10:20 AM,19.092
33,06/11/14 01:25:20 AM,18.806
34,06/11/14 01:40:20 AM,18.521
35,06/11/14 01:55:20 AM,18.236
36,06/11/14 02:10:20 AM,17.950
37,06/11/14 02:25:20 AM,17.665
38,06/11/14 02:40:20 AM,17.475
39,06/11/14 02:55:20 AM,17.189
40,06/11/14 03:10:20 AM,16.903
41,06/11/14 03:25:20 AM,16.713
42,06/11/14 03:40:20 AM,16.427
43,06/11/14 03:55:20 AM,16.237
44,06/11/14 04:10:20 AM,15.951
45,06/11/14 04:25:20 AM,15.760
46,06/11/14 04:40:20 AM,15.473
47,06/11/14 04:55:20 AM,15.282
48,06/11/14 05:10:20 AM,15.091
49,06/11/14 05:25:20 AM,14.900
50,06/11/14 05:40:20 AM,14.709
51,06/11/14 05:55:20 AM,14.613
52,06/11/14 06:10:20 AM,14.421
53,06/11/14 06:25:20 AM,14.325
54,06/11/14 06:40:20 AM,14.134
55,06/11/14 06:55:20 AM,14.038
56,06/11/14 07:10:20 AM,14.038
57,06/11/14 07:25:20 AM,13.942
58,06/11/14 07:40:20 AM,13.942
59,06/11/14 07:55:20 AM,13.942
60,06/11/14 08:10:20 AM,14.038
61,06/11/14 08:25:20 AM,14.325
62,06/11/14 08:40:20 AM,14.709
63,06/11/14 08:55:20 AM,14.996
64,06/11/14 09:10:20 AM,15.378
65,06/11/14 09:25:20 AM,15.760
66,06/11/14 09:40:20 AM,16.141
67,06/11/14 09:55:20 AM,16.618
68,06/11/14 10:10:20 AM,17.094
69,06/11/14 10:25:20 AM,17.379
70,06/11/14 10:40:20 AM,17.665
71,06/11/14 10:55:20 AM,18.616
72,06/11/14 11:10:20 AM,20.234
73,06/11/14 11:25:20 AM,20.996
74,06/11/14 11:40:20 AM,24.641
75,06/11/14 11:55:20 AM,31.472
76,06/11/14 12:10:20 PM,36.620
77,06/11/14 12:25:20 PM,39.050
78,06/11/14 12:40:20 PM,40.761
79,06/11/14 12:55:20 PM,41.341
80,06/11/14 01:10:20 PM,43.238
81,06/11/14 01:25:20 PM,44.704
82,06/11/14 01:40:20 PM,46.083
83,06/11/14 01:55:20 PM,46.850
84,06/11/14 02:10:20 PM,47.109
85,06/11/14 02:25:20 PM,47.109
86,06/11/14 02:40:20 PM,46.465
87,06/11/14 02:55:20 PM,44.704
88,06/11/14 03:10:20 PM,40.876
89,06/11/14 03:25:20 PM,38.826
90,06/11/14 03:40:20 PM,41.692
91,06/11/14 03:55:20 PM,47.499
92,06/11/14 04:10:20 PM,45.452
93,06/11/14 04:25:20 PM,38.490
94,06/11/14 04:40:20 PM,32.704
95,06/11/14 04:55:20 PM,29.252
96,06/11/14 05:10:20 PM,25.708
97,06/11/14 05:25:20 PM,26.195
98,06/11/14 05:40:20 PM,26.683
99,06/11/14 05:55:20 PM,26.781
100,06/11/14 06:10:20 PM,26.195
101,06/11/14 06:25:20 PM,25.805
102,06/11/14 06:40:20 PM,25.610
103,06/11/14 06:55:20 PM,25.416
104,06/11/14 07:10:20 PM,25.125
105,06/11/14 07:25:20 PM,25.125
106,06/11/14 07:40:20 PM,25.222
107,06/11/14 07:55:20 PM,25.125
108,06/11/14 08:10:20 PM,25.125
109,06/11/14 08:25:20 PM,24.931
110,06/11/14 08:40:20 PM,24.835
111,06/11/14 08:55:20 PM,24.641
112,06/11/14 09:10:20 PM,24.351
113,06/11/14 09:25:20 PM,23.966
114,06/11/14 09:40:20 PM,23.677
115,06/11/14 09:55:20 PM,23.292
116,06/11/14 10:10:20 PM,23.004
117,06/11/14 10:25:20 PM,22.717
118,06/11/14 10:40:20 PM,22.429
119,06/11/14 10:55:20 PM,22.142
120,06/11/14 11:10:20 PM,21.855
121,06/11/14 11:25:20 PM,21.569
122,06/11/14 11:40:20 PM,21.282
123,06/11/14 11:55:20 PM,20.901
124,06/12/14 12:10:20 AM,20.615
125,06/12/14 12:25:20 AM,20.329
126,06/12/14 12:40:20 AM,20.138
127,06/12/14 12:55:20 AM,19.948
128,06/12/14 01:10:20 AM,19.662
129,06/12/14 01:25:20 AM,19.567
130,06/12/14 01:40:20 AM,19.282
131,06/12/14 01:55:20 AM,19.092
132,06/12/14 02:10:20 AM,18.901
133,06/12/14 02:25:20 AM,18.711
134,06/12/14 02:40:20 AM,18.521
135,06/12/14 02:55:20 AM,18.331
136,06/12/14 03:10:20 AM,18.140
137,06/12/14 03:25:20 AM,18.045
138,06/12/14 03:40:20 AM,17.855
139,06/12/14 03:55:20 AM,17.760
140,06/12/14 04:10:20 AM,17.570
141,06/12/14 04:25:20 AM,17.379
142,06/12/14 04:40:20 AM,17.284
143,06/12/14 04:55:20 AM,17.094
144,06/12/14 05:10:20 AM,16.903
145,06/12/14 05:25:20 AM,16.713
146,06/12/14 05:40:20 AM,16.618
147,06/12/14 05:55:20 AM,16.523
148,06/12/14 06:10:20 AM,16.427
149,06/12/14 06:25:20 AM,16.427
150,06/12/14 06:40:20 AM,16.523
151,06/12/14 06:55:20 AM,16.523
152,06/12/14 07:10:20 AM,16.523
153,06/12/14 07:25:20 AM,16.523
154,06/12/14 07:40:20 AM,16.618
155,06/12/14 07:55:20 AM,16.713
156,06/12/14 08:10:20 AM,16.903
157,06/12/14 08:25:20 AM,17.189
158,06/12/14 08:40:20 AM,17.570
159,06/12/14 08:55:20 AM,17.855
160,06/12/14 09:10:20 AM,18.236
161,06/12/14 09:25:20 AM,18.806
162,06/12/14 09:40:20 AM,19.092
163,06/12/14 09:55:20 AM,19.567
164,06/12/14 10:10:20 AM,20.424
165,06/12/14 10:25:20 AM,21.282
166,06/12/14 10:40:20 AM,21.664
167,06/12/14 10:55:20 AM,22.142
168,06/12/14 11:10:20 AM,22.525
169,06/12/14 11:25:20 AM,22.333
170,06/12/14 11:40:20 AM,23.100
171,06/12/14 11:55:20 AM,24.351
172,06/12/14 12:10:20 PM,25.902
173,06/12/14 12:25:20 PM,27.862
174,06/12/14 12:40:20 PM,29.452
175,06/12/14 12:55:20 PM,30.659
176,06/12/14 01:10:20 PM,31.778
177,06/12/14 01:25:20 PM,36.511
178,06/12/14 01:40:20 PM,34.585
179,06/12/14 01:55:20 PM,32.086
180,06/12/14 02:10:20 PM,31.574
181,06/12/14 02:25:20 PM,28.853
182,06/12/14 02:40:20 PM,28.060
183,06/12/14 02:55:20 PM,28.060
184,06/12/14 03:10:20 PM,28.159
185,06/12/14 03:25:20 PM,27.272
186,06/12/14 03:40:20 PM,27.272
187,06/12/14 03:55:20 PM,27.173
188,06/12/14 04:10:20 PM,27.173
189,06/12/14 04:25:20 PM,26.585
190,06/12/14 04:40:20 PM,25.805
191,06/12/14 04:55:20 PM,24.931
192,06/12/14 05:10:20 PM,15.569
193,06/12/14 05:25:20 PM,14.613
194,06/12/14 05:40:20 PM,15.378
195,06/12/14 05:55:20 PM,15.855
196,06/12/14 06:10:20 PM,15.664
197,06/12/14 06:25:20 PM,15.569
198,06/12/14 06:40:20 PM,15.473
199,06/12/14 06:55:20 PM,15.473
200,06/12/14 07:10:20 PM,15.569
201,06/12/14 07:25:20 PM,15.473
202,06/12/14 07:40:20 PM,15.473
203,06/12/14 07:55:20 PM,15.378
204,06/12/14 08:10:20 PM,15.378
205,06/12/14 08:25:20 PM,15.473
206,06/12/14 08:40:20 PM,15.378
207,06/12/14 08:55:20 PM,15.282
208,06/12/14 09:10:20 PM,15.378
209,06/12/14 09:25:20 PM,15.378
210,06/12/14 09:40:20 PM,15.378
211,06/12/14 09:55:20 PM,15.378
212,06/12/14 10:10:20 PM,15.473
213,06/12/14 10:25:20 PM,15.378
214,06/12/14 10:40:20 PM,15.378
215,06/12/14 10:55:20 PM,15.473
216,06/12/14 11:10:20 PM,15.473
217,06/12/14 11:25:20 PM,15.473
218,06/12/14 11:40:20 PM,15.473
219,06/12/14 11:55:20 PM,15.473
220,06/13/14 12:10:20 AM,15.378
221,06/13/14 12:25:20 AM,15.282
222,06/13/14 12:40:20 AM,15.282
223,06/13/14 12:55:20 AM,15.282
224,06/13/14 01:10:20 AM,15.282
225,06/13/14 01:25:20 AM,15.282
226,06/13/14 01:40:20 AM,15.282
227,06/13/14 01:55:20 AM,15.282
228,06/13/14 02:10:20 AM,15.282
229,06/13/14 02:25:20 AM,15.378
230,06/13/14 02:40:20 AM,15.473
231,06/13/14 02:55:20 AM,15.378
232,06/13/14 03:10:20 AM,14.996
233,06/13/14 03:25:20 AM,14.900
234,06/13/14 03:40:20 AM,14.996
235,06/13/14 03:55:20 AM,15.091
236,06/13/14 04:10:20 AM,15.091
237,06/13/14 04:25:20 AM,15.091
238,06/13/14 04:40:20 AM,15.091
239,06/13/14 04:55:20 AM,15.091
240,06/13/14 05:10:20 AM,15.187
241,06/13/14 05:25:20 AM,15.282
242,06/13/14 05:40:20 AM,15.282
243,06/13/14 05:55:20 AM,15.282
244,06/13/14 06:10:20 AM,15.187
245,06/13/14 06:25:20 AM,15.091
246,06/13/14 06:40:20 AM,15.187
247,06/13/14 06:55:20 AM,15.091
248,06/13/14 07:10:20 AM,15.091
249,06/13/14 07:25:20 AM,15.091
250,06/13/14 07:40:20 AM,15.091
251,06/13/14 07:55:20 AM,15.091
252,06/13/14 08:10:20 AM,15.187
253,06/13/14 08:25:20 AM,15.091
254,06/13/14 08:40:20 AM,15.187
255,06/13/14 08:55:20 AM,15.187
256,06/13/14 09:10:20 AM,15.187
257,06/13/14 09:25:20 AM,15.187
258,06/13/14 09:40:20 AM,15.187
259,06/13/14 09:55:20 AM,15.187
260,06/13/14 10:10:20 AM,15.187
261,06/13/14 10:25:20 AM,15.187
262,06/13/14 10:40:20 AM,15.187
263,06/13/14 10:55:20 AM,15.187
264,06/13/14 11:10:20 AM,15.187
265,06/13/14 11:25:20 AM,15.282
266,06/13/14 11:40:20 AM,15.378
267,06/13/14 11:55:20 AM,15.569
268,06/13/14 12:10:20 PM,15.569
269,06/13/14 12:25:20 PM,15.569
270,06/13/14 12:40:20 PM,15.760
271,06/13/14 12:55:20 PM,15.951
272,06/13/14 01:10:20 PM,15.855
273,06/13/14 01:25:20 PM,15.855
274,06/13/14 01:40:20 PM,15.951
275,06/13/14 01:55:20 PM,16.046
276,06/13/14 02:10:20 PM,16.141
277,06/13/14 02:25:20 PM,16.046
278,06/13/14 02:40:20 PM,16.046
279,06/13/14 02:55:20 PM,16.046
280,06/13/14 03:10:20 PM,16.237
281,06/13/14 03:25:20 PM,15.951
282,06/13/14 03:40:20 PM,15.855
283,06/13/14 03:55:20 PM,16.046
284,06/13/14 04:10:20 PM,16.046
285,06/13/14 04:25:20 PM,16.046
286,06/13/14 04:40:20 PM,15.951
287,06/13/14 04:55:20 PM,15.951
288,06/13/14 05:10:20 PM,16.046
289,06/13/14 05:25:20 PM,16.046
290,06/13/14 05:40:20 PM,15.951
291,06/13/14 05:55:20 PM,15.951
292,06/13/14 06:10:20 PM,15.855
293,06/13/14 06:25:20 PM,15.760
294,06/13/14 06:40:20 PM,15.760
295,06/13/14 06:55:20 PM,15.473
296,06/13/14 07:10:20 PM,15.473
297,06/13/14 07:25:20 PM,15.282
298,06/13/14 07:40:20 PM,15.282
299,06/13/14 07:55:20 PM,15.473
300,06/13/14 08:10:20 PM,15.473
301,06/13/14 08:25:20 PM,15.378
302,06/13/14 08:40:20 PM,15.282
303,06/13/14 08:55:20 PM,15.187
304,06/13/14 09:10:20 PM,15.091
305,06/13/14 09:25:20 PM,15.187
306,06/13/14 09:40:20 PM,15.091
307,06/13/14 09:55:20 PM,15.091
308,06/13/14 10:10:20 PM,15.091
309,06/13/14 10:25:20 PM,15.091
310,06/13/14 10:40:20 PM,15.091
311,06/13/14 10:55:20 PM,15.091
312,06/13/14 11:10:20 PM,15.091
313,06/13/14 11:25:20 PM,15.091
314,06/13/14 11:40:20 PM,15.091
315,06/13/14 11:55:20 PM,15.091
316,06/14/14 12:10:20 AM,15.282
317,06/14/14 12:25:20 AM,15.282
318,06/14/14 12:40:20 AM,15.282
319,06/14/14 12:55:20 AM,15.187
320,06/14/14 01:10:20 AM,15.282
321,06/14/14 01:25:20 AM,15.282
322,06/14/14 01:40:20 AM,15.282
323,06/14/14 01:55:20 AM,15.282
324,06/14/14 02:10:20 AM,15.282
325,06/14/14 02:25:20 AM,15.187
326,06/14/14 02:40:20 AM,15.187
327,06/14/14 02:55:20 AM,15.187
328,06/14/14 03:10:20 AM,15.091
329,06/14/14 03:25:20 AM,15.187
330,06/14/14 03:40:20 AM,15.187
331,06/14/14 03:55:20 AM,15.187
332,06/14/14 04:10:20 AM,15.187
333,06/14/14 04:25:20 AM,15.187
334,06/14/14 04:40:20 AM,15.187
335,06/14/14 04:55:20 AM,15.187
336,06/14/14 05:10:20 AM,15.282
337,06/14/14 05:25:20 AM,15.282
338,06/14/14 05:40:20 AM,15.187
339,06/14/14 05:55:20 AM,15.187
340,06/14/14 06:10:20 AM,15.187
341,06/14/14 06:25:20 AM,15.187
342,06/14/14 06:40:20 AM,15.187
343,06/14/14 06:55:20 AM,15.091
344,06/14/14 07:10:20 AM,15.091
345,06/14/14 07:25:20 AM,14.996
346,06/14/14 07:40:20 AM,14.996
347,06/14/14 07:55:20 AM,14.996
348,06/14/14 08:10:20 AM,14.996
349,06/14/14 08:25:20 AM,14.996
350,06/14/14 08:40:20 AM,15.091
351,06/14/14 08:55:20 AM,14.996
352,06/14/14 09:10:20 AM,14.996
353,06/14/14 09:25:20 AM,15.091
354,06/14/14 09:40:20 AM,15.091
355,06/14/14 09:55:20 AM,15.091
356,06/14/14 10:10:20 AM,15.091
357,06/14/14 10:25:20 AM,15.091
358,06/14/14 10:40:20 AM,15.187
359,06/14/14 10:55:20 AM,15.187
360,06/14/14 11:10:20 AM,15.187
361,06/14/14 11:25:20 AM,15.187
362,06/14/14 11:40:20 AM,15.187
363,06/14/14 11:55:20 AM,15.187
364,06/14/14 12:10:20 PM,15.282
365,06/14/14 12:25:20 PM,15.282
366,06/14/14 12:40:20 PM,15.378
367,06/14/14 12:55:20 PM,15.378
368,06/14/14 01:10:20 PM,15.569
369,06/14/14 01:25:20 PM,15.664
370,06/14/14 01:40:20 PM,15.760
371,06/14/14 01:55:20 PM,15.855
372,06/14/14 02:10:20 PM,15.951
373,06/14/14 02:25:20 PM,16.046
374,06/14/14 02:40:20 PM,15.951
375,06/14/14 02:55:20 PM,15.855
376,06/14/14 03:10:20 PM,15.855
377,06/14/14 03:25:20 PM,16.046
378,06/14/14 03:40:20 PM,16.141
379,06/14/14 03:55:20 PM,15.951
380,06/14/14 04:10:20 PM,15.855
381,06/14/14 04:25:20 PM,15.664
382,06/14/14 04:40:20 PM,15.760
383,06/14/14 04:55:20 PM,15.855
384,06/14/14 05:10:20 PM,15.855
385,06/14/14 05:25:20 PM,15.760
386,06/14/14 05:40:20 PM,15.760
387,06/14/14 05:55:20 PM,15.760
388,06/14/14 06:10:20 PM,15.760
389,06/14/14 06:25:20 PM,15.760
390,06/14/14 06:40:20 PM,15.664
391,06/14/14 06:55:20 PM,15.760
392,06/14/14 07:10:20 PM,15.569
393,06/14/14 07:25:20 PM,15.569
394,06/14/14 07:40:20 PM,15.473
395,06/14/14 07:55:20 PM,15.282
396,06/14/14 08:10:20 PM,15.282
397,06/14/14 08:25:20 PM,15.187
398,06/14/14 08:40:20 PM,15.091
399,06/14/14 08:55:20 PM,15.187
400,06/14/14 09:10:20 PM,15.282
401,06/14/14 09:25:20 PM,15.091
402,06/14/14 09:40:20 PM,14.900
403,06/14/14 09:55:20 PM,14.804
404,06/14/14 10:10:20 PM,14.996
405,06/14/14 10:25:20 PM,14.804
406,06/14/14 10:40:20 PM,14.900
407,06/14/14 10:55:20 PM,14.804
408,06/14/14 11:10:20 PM,14.900
409,06/14/14 11:25:20 PM,14.804
410,06/14/14 11:40:20 PM,14.804
411,06/14/14 11:55:20 PM,14.804
412,06/15/14 12:10:20 AM,14.804
413,06/15/14 12:25:20 AM,14.804
414,06/15/14 12:40:20 AM,14.996
415,06/15/14 12:55:20 AM,14.996
416,06/15/14 01:10:20 AM,14.996
417,06/15/14 01:25:20 AM,14.996
418,06/15/14 01:40:20 AM,14.996
419,06/15/14 01:55:20 AM,15.091
420,06/15/14 02:10:20 AM,14.996
421,06/15/14 02:25:20 AM,14.996
422,06/15/14 02:40:20 AM,15.091
423,06/15/14 02:55:20 AM,15.091
424,06/15/14 03:10:20 AM,15.187
425,06/15/14 03:25:20 AM,15.091
426,06/15/14 03:40:20 AM,15.091
427,06/15/14 03:55:20 AM,15.091
428,06/15/14 04:10:20 AM,15.091
429,06/15/14 04:25:20 AM,15.187
430,06/15/14 04:40:20 AM,15.091
431,06/15/14 04:55:20 AM,15.091
432,06/15/14 05:10:20 AM,15.187
433,06/15/14 05:25:20 AM,15.187
434,06/15/14 05:40:20 AM,15.091
435,06/15/14 05:55:20 AM,15.091
436,06/15/14 06:10:20 AM,14.996
437,06/15/14 06:25:20 AM,14.996
438,06/15/14 06:40:20 AM,14.996
439,06/15/14 06:55:20 AM,14.996
440,06/15/14 07:10:20 AM,14.996
441,06/15/14 07:25:20 AM,14.996
442,06/15/14 07:40:20 AM,14.996
443,06/15/14 07:55:20 AM,14.996
444,06/15/14 08:10:20 AM,14.996
445,06/15/14 08:25:20 AM,14.996
446,06/15/14 08:40:20 AM,14.996
447,06/15/14 08:55:20 AM,14.996
448,06/15/14 09:10:20 AM,14.996
449,06/15/14 09:25:20 AM,14.996
450,06/15/14 09:40:20 AM,14.996
451,06/15/14 09:55:20 AM,14.996
452,06/15/14 10:10:20 AM,15.091
453,06/15/14 10:25:20 AM,15.091
454,06/15/14 10:40:20 AM,15.187
455,06/15/14 10:55:20 AM,15.187
456,06/15/14 11:10:20 AM,15.187
457,06/15/14 11:25:20 AM,15.187
458,06/15/14 11:40:20 AM,15.187
459,06/15/14 11:55:20 AM,15.282
460,06/15/14 12:10:20 PM,15.187
461,06/15/14 12:25:20 PM,15.187
462,06/15/14 12:40:20 PM,15.282
463,06/15/14 12:55:20 PM,15.282
464,06/15/14 01:10:20 PM,15.378
465,06/15/14 01:25:20 PM,15.569
466,06/15/14 01:40:20 PM,15.664
467,06/15/14 01:55:20 PM,15.664
468,06/15/14 02:10:20 PM,15.760
469,06/15/14 02:25:20 PM,15.855
470,06/15/14 02:40:20 PM,15.951
471,06/15/14 02:55:20 PM,16.046
472,06/15/14 03:10:20 PM,16.141
473,06/15/14 03:25:20 PM,16.046
474,06/15/14 03:40:20 PM,15.951
475,06/15/14 03:55:20 PM,15.760
476,06/15/14 04:10:20 PM,15.855
477,06/15/14 04:25:20 PM,15.855
478,06/15/14 04:40:20 PM,16.141
479,06/15/14 04:55:20 PM,15.569
480,06/15/14 05:10:20 PM,15.664
481,06/15/14 05:25:20 PM,15.664
482,06/15/14 05:40:20 PM,15.664
483,06/15/14 05:55:20 PM,15.664
484,06/15/14 06:10:20 PM,15.664
485,06/15/14 06:25:20 PM,15.664
486,06/15/14 06:40:20 PM,15.664
487,06/15/14 06:55:20 PM,15.664
488,06/15/14 07:10:20 PM,15.569
489,06/15/14 07:25:20 PM,15.569
490,06/15/14 07:40:20 PM,15.569
491,06/15/14 07:55:20 PM,15.569
492,06/15/14 08:10:20 PM,15.473
493,06/15/14 08:25:20 PM,15.187
494,06/15/14 08:40:20 PM,15.091
495,06/15/14 08:55:20 PM,15.091
496,06/15/14 09:10:20 PM,15.091
497,06/15/14 09:25:20 PM,15.091
498,06/15/14 09:40:20 PM,15.091
499,06/15/14 09:55:20 PM,15.091
500,06/15/14 10:10:20 PM,15.091
501,06/15/14 10:25:20 PM,14.804
502,06/15/14 10:40:20 PM,14.900
503,06/15/14 10:55:20 PM,14.804
504,06/15/14 11:10:20 PM,14.804
505,06/15/14 11:25:20 PM,14.804
506,06/15/14 11:40:20 PM,14.804
507,06/15/14 11:55:20 PM,14.709
508,06/16/14 12:10:20 AM,14.709
509,06/16/14 12:25:20 AM,14.804
510,06/16/14 12:40:20 AM,14.804
511,06/16/14 12:55:20 AM,14.804
512,06/16/14 01:10:20 AM,14.804
513,06/16/14 01:25:20 AM,14.804
514,06/16/14 01:40:20 AM,14.804
515,06/16/14 01:55:20 AM,14.804
516,06/16/14 02:10:20 AM,14.804
517,06/16/14 02:25:20 AM,14.804
518,06/16/14 02:40:20 AM,14.804
519,06/16/14 02:55:20 AM,14.900
520,06/16/14 03:10:20 AM,14.900
521,06/16/14 03:25:20 AM,14.900
522,06/16/14 03:40:20 AM,14.996
523,06/16/14 03:55:20 AM,14.996
524,06/16/14 04:10:20 AM,15.091
525,06/16/14 04:25:20 AM,15.091
526,06/16/14 04:40:20 AM,14.996
527,06/16/14 04:55:20 AM,14.996
528,06/16/14 05:10:20 AM,14.996
529,06/16/14 05:25:20 AM,14.996
530,06/16/14 05:40:20 AM,14.900
531,06/16/14 05:55:20 AM,14.900
532,06/16/14 06:10:20 AM,14.996
533,06/16/14 06:25:20 AM,14.996
534,06/16/14 06:40:20 AM,14.900
535,06/16/14 06:55:20 AM,14.804
536,06/16/14 07:10:20 AM,14.804
537,06/16/14 07:25:20 AM,14.709
538,06/16/14 07:40:20 AM,14.804
539,06/16/14 07:55:20 AM,14.804
540,06/16/14 08:10:20 AM,14.804
541,06/16/14 08:25:20 AM,14.804
542,06/16/14 08:40:20 AM,14.804
543,06/16/14 08:55:20 AM,14.804
544,06/16/14 09:10:20 AM,14.804
545,06/16/14 09:25:20 AM,14.804
546,06/16/14 09:40:20 AM,14.804
547,06/16/14 09:55:20 AM,14.804
548,06/16/14 10:10:20 AM,14.804
549,06/16/14 10:25:20 AM,14.804
550,06/16/14 10:40:20 AM,14.804
551,06/16/14 10:55:20 AM,14.900
552,06/16/14 11:10:20 AM,14.900
553,06/16/14 11:25:20 AM,14.900
554,06/16/14 11:40:20 AM,14.900
555,06/16/14 11:55:20 AM,14.900
556,06/16/14 12:10:20 PM,14.900
557,06/16/14 12:25:20 PM,14.996
558,06/16/14 12:40:20 PM,14.996
559,06/16/14 12:55:20 PM,15.091
560,06/16/14 01:10:20 PM,15.091
561,06/16/14 01:25:20 PM,15.091
562,06/16/14 01:40:20 PM,15.091
563,06/16/14 01:55:20 PM,15.091
564,06/16/14 02:10:20 PM,15.091
565,06/16/14 02:25:20 PM,15.187
566,06/16/14 02:40:20 PM,15.187
567,06/16/14 02:55:20 PM,15.282
568,06/16/14 03:10:20 PM,15.282
569,06/16/14 03:25:20 PM,15.378
570,06/16/14 03:40:20 PM,15.378
571,06/16/14 03:55:20 PM,15.473
572,06/16/14 04:10:20 PM,15.473
573,06/16/14 04:25:20 PM,15.569
574,06/16/14 04:40:20 PM,15.664
575,06/16/14 04:55:20 PM,15.664
576,06/16/14 05:10:20 PM,15.664
577,06/16/14 05:25:20 PM,15.664
578,06/16/14 05:40:20 PM,15.664
579,06/16/14 05:55:20 PM,15.378
580,06/16/14 06:10:20 PM,15.378
581,06/16/14 06:25:20 PM,15.378
582,06/16/14 06:40:20 PM,15.378
583,06/16/14 06:55:20 PM,15.282
584,06/16/14 07:10:20 PM,15.187
585,06/16/14 07:25:20 PM,15.282
586,06/16/14 07:40:20 PM,15.282
587,06/16/14 07:55:20 PM,15.187
588,06/16/14 08:10:20 PM,15.187
589,06/16/14 08:25:20 PM,15.282
590,06/16/14 08:40:20 PM,15.187
591,06/16/14 08:55:20 PM,15.187
592,06/16/14 09:10:20 PM,15.187
593,06/16/14 09:25:20 PM,15.091
594,06/16/14 09:40:20 PM,15.187
595,06/16/14 09:55:20 PM,14.996
596,06/16/14 10:10:20 PM,14.900
597,06/16/14 10:25:20 PM,14.804
598,06/16/14 10:40:20 PM,14.613
599,06/16/14 10:55:20 PM,14.517
600,06/16/14 11:10:20 PM,14.421
601,06/16/14 11:25:20 PM,14.517
602,06/16/14 11:40:20 PM,14.517
603,06/16/14 11:55:20 PM,14.517
604,06/17/14 12:10:20 AM,14.517
605,06/17/14 12:25:20 AM,14.421
606,06/17/14 12:40:20 AM,14.421
607,06/17/14 12:55:20 AM,14.421
608,06/17/14 01:10:20 AM,14.517
609,06/17/14 01:25:20 AM,14.517
610,06/17/14 01:40:20 AM,14.517
611,06/17/14 01:55:20 AM,14.517
612,06/17/14 02:10:20 AM,14.517
613,06/17/14 02:25:20 AM,14.613
614,06/17/14 02:40:20 AM,14.613
615,06/17/14 02:55:20 AM,14.613
616,06/17/14 03:10:20 AM,14.613
617,06/17/14 03:25:20 AM,14.613
618,06/17/14 03:40:20 AM,14.709
619,06/17/14 03:55:20 AM,14.709
620,06/17/14 04:10:20 AM,14.709
621,06/17/14 04:25:20 AM,14.804
622,06/17/14 04:40:20 AM,14.804
623,06/17/14 04:55:20 AM,14.804
624,06/17/14 05:10:20 AM,14.900
625,06/17/14 05:25:20 AM,14.996
626,06/17/14 05:40:20 AM,14.996
627,06/17/14 05:55:20 AM,14.900
628,06/17/14 06:10:20 AM,14.900
629,06/17/14 06:25:20 AM,14.900
630,06/17/14 06:40:20 AM,14.900
631,06/17/14 06:55:20 AM,14.900
632,06/17/14 07:10:20 AM,14.900
633,06/17/14 07:25:20 AM,14.900
634,06/17/14 07:40:20 AM,14.804
635,06/17/14 07:55:20 AM,14.613
636,06/17/14 08:10:20 AM,14.613
637,06/17/14 08:25:20 AM,14.613
638,06/17/14 08:40:20 AM,14.613
639,06/17/14 08:55:20 AM,14.709
640,06/17/14 09:10:20 AM,14.709
641,06/17/14 09:25:20 AM,14.709
642,06/17/14 09:40:20 AM,14.804
643,06/17/14 09:55:20 AM,14.709
644,06/17/14 10:10:20 AM,14.613
645,06/17/14 10:25:20 AM,14.709
646,06/17/14 10:40:20 AM,14.709
647,06/17/14 10:55:20 AM,14.709
648,06/17/14 11:10:20 AM,14.804
649,06/17/14 11:25:20 AM,14.804
650,06/17/14 11:40:20 AM,14.900
651,06/17/14 11:55:20 AM,14.996
652,06/17/14 12:10:20 PM,14.996
653,06/17/14 12:25:20 PM,14.996
654,06/17/14 12:40:20 PM,14.996
655,06/17/14 12:55:20 PM,15.187
656,06/17/14 01:10:20 PM,15.091
657,06/17/14 01:25:20 PM,15.091
658,06/17/14 01:40:20 PM,15.091
659,06/17/14 01:55:20 PM,14.996
660,06/17/14 02:10:20 PM,14.996
661,06/17/14 02:25:20 PM,15.091
662,06/17/14 02:40:20 PM,15.187
663,06/17/14 02:55:20 PM,15.378
664,06/17/14 03:10:20 PM,15.378
665,06/17/14 03:25:20 PM,15.473
666,06/17/14 03:40:20 PM,15.473
667,06/17/14 03:55:20 PM,15.664
668,06/17/14 04:10:20 PM,15.760
669,06/17/14 04:25:20 PM,15.855
670,06/17/14 04:40:20 PM,16.046
671,06/17/14 04:55:20 PM,15.951
672,06/17/14 05:10:20 PM,15.855
673,06/17/14 05:25:20 PM,15.760
674,06/17/14 05:40:20 PM,15.951
675,06/17/14 05:55:20 PM,16.141
676,06/17/14 06:10:20 PM,15.473
677,06/17/14 06:25:20 PM,15.473
678,06/17/14 06:40:20 PM,15.091
679,06/17/14 06:55:20 PM,15.091
680,06/17/14 07:10:20 PM,15.378
681,06/17/14 07:25:20 PM,15.282
682,06/17/14 07:40:20 PM,15.282
683,06/17/14 07:55:20 PM,15.282
684,06/17/14 08:10:20 PM,15.282
685,06/17/14 08:25:20 PM,15.378
686,06/17/14 08:40:20 PM,15.282
687,06/17/14 08:55:20 PM,15.187
688,06/17/14 09:10:20 PM,15.187
689,06/17/14 09:25:20 PM,15.091
690,06/17/14 09:40:20 PM,15.091
691,06/17/14 09:55:20 PM,14.996
692,06/17/14 10:10:20 PM,14.996
693,06/17/14 10:25:20 PM,14.996
694,06/17/14 10:40:20 PM,14.709
695,06/17/14 10:55:20 PM,14.996
696,06/17/14 11:10:20 PM,14.996
697,06/17/14 11:25:20 PM,14.804
698,06/17/14 11:40:20 PM,14.613
699,06/17/14 11:55:20 PM,14.613
700,06/18/14 12:10:20 AM,14.517
701,06/18/14 12:25:20 AM,14.517
702,06/18/14 12:40:20 AM,14.517
703,06/18/14 12:55:20 AM,14.517
704,06/18/14 01:10:20 AM,14.517
705,06/18/14 01:25:20 AM,14.517
706,06/18/14 01:40:20 AM,14.517
707,06/18/14 01:55:20 AM,14.517
708,06/18/14 02:10:20 AM,14.517
709,06/18/14 02:25:20 AM,14.517
710,06/18/14 02:40:20 AM,14.613
711,06/18/14 02:55:20 AM,14.709
712,06/18/14 03:10:20 AM,14.709
713,06/18/14 03:25:20 AM,14.709
714,06/18/14 03:40:20 AM,14.709
715,06/18/14 03:55:20 AM,14.709
716,06/18/14 04:10:20 AM,14.804
717,06/18/14 04:25:20 AM,14.804
718,06/18/14 04:40:20 AM,14.804
719,06/18/14 04:55:20 AM,14.804
720,06/18/14 05:10:20 AM,14.709
721,06/18/14 05:25:20 AM,14.613
722,06/18/14 05:40:20 AM,14.709
723,06/18/14 05:55:20 AM,14.709
724,06/18/14 06:10:20 AM,14.709
725,06/18/14 06:25:20 AM,14.709
726,06/18/14 06:40:20 AM,14.804
727,06/18/14 06:55:20 AM,14.804